TimeCDT,TemperatureF,Dew PointF,Humidity,Sea Level PressureIn,VisibilityMPH,Wind Direction,Wind SpeedMPH,Gust SpeedMPH,PrecipitationIn,Events,Conditions,WindDirDegrees,DateUTC
12:53 AM,81.0,57.9,45,29.82,10.0,South,16.1,-,N/A,,Clear,180,2013-06-14 05:53:00
1:53 AM,79.0,57.9,48,29.82,10.0,South,13.8,-,N/A,,Clear,180,2013-06-14 06:53:00
2:53 AM,75.9,57.9,54,29.82,10.0,South,11.5,-,N/A,,Clear,180,2013-06-14 07:53:00
3:53 AM,73.9,57.9,57,29.81,10.0,South,10.4,-,N/A,,Clear,190,2013-06-14 08:53:00
4:53 AM,73.0,57.9,59,29.80,10.0,South,12.7,-,N/A,,Clear,180,2013-06-14 09:53:00
5:53 AM,71.1,57.9,63,29.81,10.0,SSW,13.8,-,N/A,,Clear,210,2013-06-14 10:53:00
6:53 AM,71.1,57.9,63,29.83,10.0,SSW,9.2,-,N/A,,Clear,210,2013-06-14 11:53:00
7:53 AM,75.0,59.0,57,29.83,10.0,SSW,13.8,-,N/A,,Clear,210,2013-06-14 12:53:00
8:53 AM,82.0,60.1,47,29.83,10.0,SSW,16.1,-,N/A,,Clear,210,2013-06-14 13:53:00
9:53 AM,86.0,55.9,36,29.82,10.0,SSW,24.2,28.8,N/A,,Clear,210,2013-06-14 14:53:00
10:53 AM,89.1,57.0,34,29.81,10.0,South,24.2,32.2,N/A,,Clear,190,2013-06-14 15:53:00
11:53 AM,91.9,53.1,27,29.80,10.0,South,23.0,32.2,N/A,,Clear,190,2013-06-14 16:53:00
12:53 PM,93.0,50.0,23,29.78,10.0,SSW,21.9,32.2,N/A,,Clear,210,2013-06-14 17:53:00
1:53 PM,96.1,51.1,22,29.77,10.0,SSW,24.2,33.4,N/A,,Clear,200,2013-06-14 18:53:00
2:53 PM,97.0,54.0,23,29.75,10.0,SSW,29.9,39.1,N/A,,Partly Cloudy,200,2013-06-14 19:53:00
3:53 PM,96.1,48.9,20,29.74,10.0,SSW,23.0,39.1,N/A,,Clear,210,2013-06-14 20:53:00
4:53 PM,97.0,39.0,13,29.70,10.0,South,25.3,35.7,N/A,,Clear,170,2013-06-14 21:53:00
5:53 PM,91.9,51.1,25,29.73,10.0,South,26.5,40.3,N/A,,Clear,170,2013-06-14 22:53:00
6:53 PM,90.0,43.0,19,29.76,10.0,South,26.5,39.1,N/A,,Clear,180,2013-06-14 23:53:00
7:53 PM,87.1,43.0,21,29.79,10.0,South,20.7,27.6,N/A,,Clear,180,2013-06-15 00:53:00
8:53 PM,84.0,48.9,29,29.80,10.0,South,18.4,28.8,N/A,,Clear,190,2013-06-15 01:53:00
9:53 PM,79.0,51.1,38,29.81,10.0,South,17.3,25.3,N/A,,Overcast,180,2013-06-15 02:53:00
10:53 PM,75.9,57.0,52,29.82,10.0,South,18.4,25.3,N/A,,Overcast,170,2013-06-15 03:53:00
11:53 PM,71.1,61.0,70,29.82,10.0,South,19.6,28.8,N/A,,Clear,170,2013-06-15 04:53:00